{"data":{"norad_id":58426,"intl_designator":"2023-181B","name":"CHUANGXIN 20B (CX-20B)","alt_names":[],"object_type":"PAYLOAD","status":"ACTIVE","operator":null,"country":"PRC","launch_date":"2023-11-23","launch_site_code":"XICLF","launch_vehicle":null,"mission":null,"orbit_class":"UNKNOWN","rcs_meters":null,"size_class":null,"mass_kg":null,"dimensions":null,"purposes":[],"wikipedia_slug":null,"has_3d_model":false,"image_url":null,"decayed_at":null,"tle_current":{"epoch":"2026-05-25T04:44:03.511968Z","epoch_age_seconds":68492,"freshness":"FRESH","line1":"1 58426U 23181B   26145.19726287 -.00000068  00000+0  10812-3 0  9999","line2":"2 58426  49.9598  51.0808 0010893 201.1780 158.8647 13.41488480122659","mean_motion":13.4148848,"eccentricity":0.0010893,"inclination_deg":49.9598,"raan_deg":51.0808,"arg_perigee_deg":201.178,"mean_anomaly_deg":158.8647,"bstar":0.00010812,"rev_number":12265,"period_min":107.34344882335,"perigee_km":1095.5896253537,"apogee_km":1111.8896417876,"semimajor_km":7481.8766335707,"source":"CELESTRAK","updated_at":"2026-05-25T13:38:00.733119Z"}}}